Skip Page Navigation
NASA JPL Caltech
NASA Logo - Jet Propulsion Laboratory + View the NASA Portal
+ Near-Earth Object (NEO) Program
Search JPL
JPL Home Earth Solar System Stars & Galaxies Technology
JPL Solar System Dynamics
BODIES ORBITS EPHEMERIDES TOOLS PHYSICAL DATA DISCOVERY FAQ SITE MAP
JPL Small-Body Database Browser
Search: [ help ]  
1031 Arctica (1924 RR)
Classification: Main-belt Asteroid          SPK-ID: 2001031
Ephemeris | Orbit Diagram | Orbital Elements | Physical Parameters | Discovery Circumstances | Close-Approach Data ]

[ hide orbit diagram ]
Orbit Diagram
Note: Make sure you have Java enabled on your browser to see the applet. This applet is provided as a 3D orbit visualization tool. The applet was implemented using 2-body methods, and hence should not be used for determining accurate long-term trajectories (over several years or decades) or planetary encounter circumstances. For accurate long-term ephemerides, please instead use our Horizons system.
Orbit Viewer

Additional Notes: the orbits shown in the applet are color coded. The planets are white lines, and the asteroid/comet is a blue line. The bright white line indicates the portion of the orbit that is above the ecliptic plane, and the darker portion is below the ecliptic plane. Likewise for the asteroid/comet orbit, the light blue indicates the portion above the ecliptic plane, and the dark blue the portion below the ecliptic plane.

Orbit Viewer applet originally written and kindly provided by Osamu Ajiki (AstroArts), and further modified by Ron Baalke (JPL).


Orbital Elements at Epoch 2456400.5 (2013-Apr-18.0) TDB
Reference: JPL 10 (heliocentric ecliptic J2000)
 Element Value Uncertainty (1-sigma)   Units 
e .05625450918901984 5.9038e-08  
a 3.046853451875947 2.3228e-08 AU
q 2.875454206369795 1.8364e-07 AU
i 17.63573437847542 7.35e-06 deg
node 218.943148116678 2.0571e-05 deg
peri 306.1307224267557 7.1166e-05 deg
M 344.4443205672392 6.8087e-05 deg
tp 2456484.438704053830
(2013-Jul-10.93870405)
0.0003675 JED
period 1942.565966983024
5.32
2.2214e-05
6.082e-08
d
yr
n .1853218918269796 2.1192e-09 deg/d
Q 3.2182526973821 2.4535e-08 AU
  Orbit Determination Parameters
   # obs. used (total)      1217  
   data-arc span      36453 days (99.80 yr)  
   first obs. used      1913-05-09  
   last obs. used      2013-02-26  
   planetary ephem.      DE405  
   SB-pert. ephem.      SB405-CPV-2  
   condition code      0  
   fit RMS      .58521  
   data source      ORB  
   producer      Otto Matic  
   solution date      2013-Mar-29 14:17:33  

Additional Information
 Earth MOID = 1.90659 AU 
 T_jup = 3.164 
[ show covariance matrix ]

Ephemeris | Orbit Diagram | Orbital Elements | Physical Parameters | Discovery Circumstances | Close-Approach Data ]

Physical Parameter Table
Parameter Symbol Value Units Sigma Reference Notes
absolute magnitude H 9.56 mag n/a IRAS-A-FPA-3-RDR-IMPS-V6.0 IRAS observations used: 21
diameter diameter 75.47 km 1.5 IRAS-A-FPA-3-RDR-IMPS-V6.0 IRAS observations used: 21
rotation period rot_per 51.0 h n/a Asteroid Lightcurve DataBase (Rev. 2013-May-01) Result based on less than full coverage, so that the period may be wrong by 30 percent or so.
Published Reference List:
[Di Martino, M.; Dotto, E.; Celino, A.; Barucci, M.A.; Fulchignoni, M. (1995) Astron. Astrophys. Suppl. Ser. 112, 1-7.]
[Behrend, R. (2005) Observatoire de Geneve web site, http://obswww.unige.ch/~behrend/page_cou.html]
geometric albedo albedo 0.0465   0.002 IRAS-A-FPA-3-RDR-IMPS-V6.0 IRAS observations used: 21
B-V BV .680 mag .007 EAR-A-5-DDR-UBV-MEAN-VALUES-V1.1 #obs=2; phase (min.=7.84, mean=7.85, max.=7.86) deg.
U-B UB .325 mag .035 EAR-A-5-DDR-UBV-MEAN-VALUES-V1.1 #obs=2; phase (min.=7.84, mean=7.85, max.=7.86) deg.
Tholen spectral type spec_T CX:   n/a EAR-A-5-DDR-TAXONOMY-V4.0 used 2 color indices

1031 Arctica (1924 RR)          Discovered 1924-Jun-06 by Belyavskij, S. at Simeis (094)
Reference: DISCOVERY.DBLast Updated: 2003-08-29

[ show close-approach data ]
Alternate Designations
 1924 RR = A910 VB = A913 JA 
Ephemeris | Orbit Diagram | Orbital Elements | Physical Parameters | Discovery Circumstances | Close-Approach Data ]
ABOUT SSD CREDITS/AWARDS PRIVACY/COPYRIGHT GLOSSARY LINKS
FirstGov 2013-May-23 09:31 UT
(server date/time)  
NASA Home Page
Site Manager:   Donald K. Yeomans
Webmaster  Alan B. Chamberlin